Location: Floreasca
(45.6833°N, 22.6667°E)
Time: 21:25:50
(UTC+00:00)

Daily predictions for brighter satellites

Satellite Brightness Start Highest point End
(mag) Time Altitude Azimuth Time Altitude Azimuth Time Altitude Azimuth
Cosmos 2297 Rocket 4.0 18:58:09 10° ESE 18:59:37 11° E 19:01:04 10° E
Aureole 3 4.3 18:58:26 10° SSE 19:02:45 45° E 19:08:06 10° NNE
Cosmos 1707 Rocket 3.6 19:01:27 10° S 19:05:51 69° E 19:10:15 10° NNE
Cosmos 1356 Rocket 3.4 19:02:59 10° S 19:07:11 89° E 19:11:25 10° N
ATLAS 2AS CENTAUR R/B 3.0 19:00:29 10° NW 19:07:12 63° WSW 19:13:41 10° SSE
Cosmos 2219 Rocket 2.3 19:02:14 10° NNW 19:07:57 75° ENE 19:13:38 10° SSE
MOS 1 4.4 19:04:40 10° SSE 19:10:19 83° WSW 19:16:00 10° NNW
Cosmos 1758 3.4 19:06:33 10° NNW 19:10:30 77° W 19:14:26 10° S
ATLAS CENTAUR R/B 4.3 19:13:51 10° W 19:16:30 20° NW 19:19:14 10° N
Cosmos 1655 Rocket 4.1 19:11:35 10° S 19:17:59 89° W 19:24:25 10° N
CZ-4 R/B 4.4 19:16:56 10° WSW 19:18:20 11° W 19:19:44 10° WNW
Cosmos 1733 Rocket 3.2 19:16:36 10° N 19:21:03 83° W 19:25:28 10° S
Spot 2 Rocket 3.9 19:16:42 10° SE 19:21:36 51° ENE 19:26:32 10° N
SPOT 3 Rocket 4.1 19:18:16 10° SE 19:23:09 46° ENE 19:28:06 10° N
EXPRESS MD2 4.0 19:22:25 10° WNW 19:25:08 31° N 19:27:13 10° ENE
Cosmos 1455 2.9 19:23:23 10° N 19:26:37 33° ENE 19:29:16 14° SE
Resurs 01 Rocket 4.1 19:27:05 10° SW 19:30:10 19° W 19:33:17 10° NW
MetOp-B 4.4 19:25:33 10° S 19:30:52 68° WSW 19:36:14 10° NNW
SeaSat 1 3.0 19:28:53 12° SE 19:33:17 47° NE 19:38:00 10° NNW
Cosmos 2360 Rocket 3.5 19:32:24 10° NW 19:37:30 35° WSW 19:42:34 10° S
COSMOS 2428 2.9 19:32:32 10° NNW 19:38:13 63° ENE 19:43:02 14° SE
CENTAUR R/B 3.9 19:36:43 12° ESE 19:38:29 13° ESE 19:41:15 10° ENE
Cosmos 158 Rocket 4.5 19:34:30 10° NNW 19:39:36 48° ENE 19:43:41 15° SE
Cosmos 2208 Rocket 4.4 19:35:26 10° NNW 19:40:30 51° ENE 19:44:36 15° SE
Cosmos 1908 Rocket 3.8 19:38:42 10° N 19:42:58 54° ENE 19:46:16 16° SSE
Cosmos 1953 2.2 19:40:54 10° N 19:44:42 65° E 19:47:36 16° SSE
Ariane Rocket 3.0 19:42:23 13° SSE 19:46:57 80° ENE 19:52:03 10° NNW
Cosmos 839 Rocket 4.4 19:40:31 10° NW 19:47:05 60° WSW 19:52:28 13° SSE
Cosmos 2084 Rocket 3.9 19:50:27 10° S 19:54:29 38° ESE 19:58:22 10° NE
Cosmos 1486 Rocket 4.4 19:51:31 12° S 19:56:02 44° ESE 20:00:59 10° NNE
NOSS 0 Rocket 4.1 19:56:14 10° NNW 20:02:29 69° ENE 20:07:09 19° SE
Cosmos 1315 Rocket 3.3 19:58:39 10° SSW 20:02:35 59° WNW 20:06:33 10° N
USA 234 3.4 19:58:26 10° ENE 20:04:46 50° SE 20:11:03 10° SSW
MetOp-A 4.3 20:02:04 19° SE 20:05:48 57° ENE 20:10:51 10° N
ARIANE 5 R/B 4.3 20:04:21 13° ESE 20:06:56 21° ENE 20:10:14 10° NNE
GP-B 3.8 20:03:19 10° NNE 20:07:28 38° E 20:09:47 22° SE
SJ 16-02 3.6 20:04:30 10° WSW 20:08:10 26° WNW 20:11:51 10° N
Cosmos 371 Rocket 3.5 20:05:26 16° S 20:09:05 50° ESE 20:13:45 10° NNE
MOS 1 Rocket 4.0 20:07:08 13° S 20:11:50 60° W 20:16:55 10° NNW
BlueWalker 3 3.7 20:09:08 10° W 20:12:35 34° NNW 20:16:02 10° NE
Terra 2.6 20:09:19 12° S 20:13:31 46° W 20:18:04 10° NNW
SL-4 R/B 2.2 20:10:56 10° WNW 20:14:43 51° SW 20:16:43 26° SSE
Cosmos 1386 Rocket 4.5 20:10:08 14° S 20:15:28 71° E 20:21:34 10° NNE
SL-16 R/B 4.1 20:13:04 10° N 20:17:19 21° NE 20:21:31 10° E
Cosmos 2333 Rocket 4.4 20:14:38 10° WNW 20:18:28 18° W 20:22:18 10° SW
Spot 1 4.3 20:13:43 10° NNE 20:18:29 75° ESE 20:22:30 16° S
USA 281 4.3 20:13:11 11° ESE 20:18:39 34° NE 20:24:27 10° N
Cosmos 1745 Rocket 4.1 20:14:07 17° S 20:19:05 65° E 20:25:24 10° NNE
COSMOS 2455 2.8 20:13:22 10° SSW 20:19:23 87° SE 20:25:28 10° NNE
Okean 1-7 3.9 20:15:19 10° SSW 20:19:28 47° WNW 20:23:38 10° N
Cosmos 2237 Rocket 2.6 20:13:55 10° NNW 20:19:29 54° ENE 20:23:11 21° SE
CZ-4C R/B 1.7 20:15:12 10° SW 20:19:36 85° SE 20:25:09 10° NE
BREEZE-M DEB (TANK) 2.9 20:18:36 10° W 20:20:42 38° SSW 20:21:42 29° SSE
BREEZE-M DEB (TANK) 2.8 20:20:35 10° SW 20:22:54 41° SE 20:25:42 10° ENE
Cosmos 2227 Rocket 3.1 20:21:35 22° SE 20:23:51 29° ESE 20:28:39 10° NE
Nadezhda 1 Rocket 4.0 20:17:56 10° N 20:24:13 79° E 20:28:26 21° SSE
Cosmos 1703 Rocket 3.9 20:20:15 12° SSW 20:24:22 66° W 20:28:48 10° N
Landsat 5 3.4 20:21:44 10° NNE 20:25:54 86° E 20:28:57 19° SSW
ERS-1 Rocket 4.4 20:22:49 10° SSW 20:27:15 31° W 20:31:43 10° NNW
BREEZE-M DEB (TANK) 4.5 20:09:44 10° W 20:28:35 68° N 20:33:06 10° ENE
Cosmos 1242 Rocket 3.9 20:30:32 11° SW 20:32:45 25° WNW 20:35:06 10° NNW
Cosmos 1980 3.8 20:28:21 10° NNW 20:34:03 73° ENE 20:37:25 25° SE
Cosmos 773 Rocket 4.0 20:29:57 10° NNW 20:35:07 76° ENE 20:37:59 27° SSE
Cosmos 304 Rocket 3.6 20:35:00 19° SSW 20:38:24 78° ESE 20:43:11 10° NNE
Cosmos 2297 Rocket 2.1 20:37:49 15° SSW 20:42:37 76° ESE 20:48:17 10° NNE
NOSS 3-2 (A) 4.1 20:46:22 25° SE 20:47:14 26° ESE 20:51:54 10° ENE
ALOS 2 4.4 20:48:20 15° E 20:50:26 21° ENE 20:53:42 10° NNE
Cosmos 2219 Rocket 4.3 20:47:35 10° WNW 20:51:13 18° W 20:54:49 10° SW
CZ-2C R/B 3.6 20:52:48 10° NNE 20:57:13 65° ESE 20:58:59 35° S
Cosmos 2098 Rocket 4.1 20:50:47 10° N 20:57:14 62° ENE 21:00:14 29° SSE
Cosmos 2219 4.1 20:56:02 26° SE 20:57:28 29° ESE 21:02:15 10° NE
Cosmos 1703 3.0 20:58:36 43° S 20:59:42 86° E 21:03:24 10° N
MINOTAUR 4 R/B 4.5 20:57:13 10° NNE 20:59:32 34° E 20:59:32 34° E
Cosmos 1777 Rocket 3.9 20:58:58 23° SSW 21:02:22 87° ESE 21:07:42 10° NNE
Cosmos 1408 3.3 21:01:32 27° WSW 21:02:33 36° WNW 21:05:23 10° N
Cosmos 2263 Rocket 3.4 21:02:30 22° ESE 21:03:31 23° ESE 21:07:49 10° NE
Meteor 1-24 Rocket 3.7 21:00:36 28° S 21:03:39 74° E 21:09:10 10° NNE
SL-23 DEB 4.2 21:01:28 10° SW 21:05:21 77° SSE 21:12:00 10° ENE
Cosmos 332 Rocket 3.8 21:03:25 34° S 21:05:24 62° ESE 21:10:14 10° NNE
Cosmos 2221 Rocket 4.3 21:09:21 33° ESE 21:10:23 38° E 21:14:29 10° NNE
SeaSat 1 3.9 21:08:35 19° SSW 21:10:54 27° WSW 21:15:03 10° NW
Cosmos 1825 3.0 21:11:31 31° E 21:11:31 31° E 21:14:34 10° NNE
Cosmos 1503 Rocket 4.3 21:08:21 16° SSW 21:12:34 66° WNW 21:17:51 10° NNE
Sich 1 Rocket 3.9 21:13:04 10° N 21:17:22 53° ENE 21:18:39 38° SE
Cosmos 2242 Rocket 4.3 21:14:55 22° SW 21:17:35 50° WNW 21:22:02 10° N
Cosmos 1709 Rocket 4.2 21:13:28 21° SSW 21:17:50 70° W 21:24:10 10° N
Okean 1 Rocket 4.0 21:15:03 10° N 21:19:06 36° ENE 21:20:25 29° ESE
Cosmos 1174 4.2 21:14:55 10° NW 21:19:23 48° WSW 21:20:11 41° SSW
BREEZE-M R/B 3.7 21:19:46 34° SSE 21:20:30 36° SE 21:28:11 10° ENE
PSLV R/B 3.7 21:17:44 10° NNE 21:21:44 84° ESE 21:22:46 48° S
COSMOS 2428 4.5 21:17:44 10° NW 21:21:56 21° W 21:25:01 14° SW
Spot 4 4.0 21:24:29 37° SE 21:26:15 65° ENE 21:31:03 10° N
CENTAUR R/B 2.3 21:23:46 22° SSW 21:27:33 80° SE 21:34:31 10° NE
Cosmos 1892 2.4 21:29:15 61° ESE 21:29:27 62° E 21:32:56 10° NNE
Cosmos 1025 Rocket 4.0 21:35:18 30° ESE 21:35:56 32° E 21:39:46 10° NNE
ARIANE 5 R/B 3.3 21:41:49 33° SW 21:43:03 42° W 21:47:13 10° NNW
Cosmos 405 Rocket 3.4 21:39:37 10° NNW 21:43:12 42° W 21:43:50 38° WSW
Cosmos 2184 Rocket 4.1 21:41:41 35° SSE 21:44:28 67° E 21:50:49 10° NNE
Aureole 1 Rocket 3.3 21:45:36 44° ESE 21:46:02 46° ESE 21:50:41 10° NNE
Cosmos 1898 Rocket 4.1 21:45:07 35° SE 21:46:11 39° ESE 21:50:57 10° NE
BREEZE-M DEB (TANK) 3.6 21:45:09 10° NW 21:47:29 23° N 21:48:22 18° NE
USA 234 3.8 21:41:27 10° NE 21:47:52 61° NNW 21:54:17 10° WSW
Cosmos 1455 Rocket 4.3 21:44:20 10° N 21:48:21 32° ENE 21:49:42 26° ESE
Cosmos 1378 Rocket 3.8 21:48:07 40° SW 21:49:31 63° W 21:53:54 10° N
Cosmos 1328 3.8 21:50:29 57° SE 21:50:50 61° E 21:54:40 10° NNE
BlueWalker 3 4.2 21:48:19 10° NW 21:51:29 25° N 21:54:39 10° ENE
Cosmos 1674 Rocket 3.7 21:52:16 44° SW 21:53:29 68° W 21:57:48 10° N
H-2A R/B 2.8 21:56:27 45° SW 21:57:18 54° W 22:01:26 10° NNW
SL-12 R/B(2) 4.3 21:54:24 16° SW 22:01:10 88° NW 22:10:59 10° NE
SL-16 R/B 2.1 21:56:23 10° NNW 22:02:06 80° WSW 22:04:11 41° SSE
USA 281 3.4 22:00:04 34° S 22:02:52 57° WSW 22:09:22 10° NNW
Cosmos 2154 Rocket 4.0 22:00:32 37° S 22:03:09 76° E 22:09:28 10° NNE
Cosmos 2237 Rocket 3.6 21:58:39 10° NW 22:03:09 25° WSW 22:05:00 21° SW
Cosmos 2227 Rocket 3.0 22:03:20 16° SW 22:07:39 47° WNW 22:13:08 10° NNE
Cosmos 990 Rocket 4.2 22:05:23 32° SW 22:07:42 65° WNW 22:12:49 10° NNE
Cosmos 1943 4.2 22:03:14 10° NNW 22:08:32 41° NE 22:12:09 19° ESE
CZ-4C R/B 4.4 22:04:50 10° W 22:08:52 24° NNW 22:13:41 10° NNE
Spot 2 4.4 22:08:00 45° S 22:09:30 73° WSW 22:14:29 10° NNW
Cosmos 2082 3.6 22:08:50 41° S 22:10:49 74° ESE 22:16:27 10° NNE
Cosmos 292 Rocket 3.7 22:14:28 47° SSW 22:15:52 86° WNW 22:20:43 10° NNE
PSLV R/B 3.4 22:12:29 10° NNE 22:16:40 74° ESE 22:17:19 60° SSE
Okean 2 Rocket 4.1 22:13:44 10° NNW 22:17:50 36° W 22:18:55 31° WSW
Meteor 2-11 Rocket 4.4 22:18:16 39° S 22:20:44 89° E 22:26:53 10° N
Cosmos 1680 Rocket 4.0 22:17:13 10° NNW 22:22:20 54° ENE 22:24:39 30° SE
ALOS 2 3.2 22:25:43 40° SW 22:26:28 44° W 22:30:41 10° NNW
Cosmos 2297 Rocket 4.4 22:23:02 10° W 22:27:18 21° NW 22:31:35 10° N
Cosmos 1610 Rocket 4.5 22:27:13 38° S 22:29:56 88° W 22:36:19 10° N
Cosmos 372 Rocket 3.9 22:28:38 46° S 22:30:13 80° ESE 22:35:26 10° NNE
Cosmos 1606 3.7 22:28:44 10° N 22:32:01 33° ENE 22:32:30 31° E
Cosmos 1900 4.3 22:33:51 48° S 22:35:13 72° ESE 22:40:18 10° NE
Cosmos 1461 3.3 22:34:55 37° WSW 22:36:05 52° NW 22:39:53 10° NNE
NOSS 3-2 (A) 3.8 22:33:40 19° WSW 22:37:27 56° NW 22:43:36 10° NE
Cosmos 1339 Rocket 4.5 22:34:28 10° N 22:40:55 86° E 22:43:39 37° S
Cosmos 2219 4.0 22:37:54 21° WSW 22:41:22 46° WNW 22:46:48 10° NNE
H-2A R/B 1.8 22:40:22 10° NNE 22:44:33 89° ESE 22:45:13 62° SSW
Cosmos 1825 4.2 22:44:58 15° W 22:45:46 16° WNW 22:47:55 10° NNW
Cosmos 2263 Rocket 2.6 22:44:09 28° SW 22:47:00 57° WNW 22:52:30 10° NNE
Orbus 7S? 3.7 22:45:40 10° NW 22:48:16 46° NE 22:49:28 29° E
NOSS 3-2 (C) 3.1 22:46:16 38° SW 22:48:25 89° SE 22:54:37 10° NE
Cosmos 858 Rocket 4.4 22:48:25 46° S 22:50:01 80° ESE 22:55:15 10° NNE
Cosmos 2227 4.3 22:51:41 41° S 22:53:35 64° ESE 22:59:18 10° NNE
Cosmos 1544 Rocket 3.7 22:57:07 10° N 23:01:32 67° E 23:02:43 45° SE
Cosmos 2341 Rocket 3.9 23:00:28 37° S 23:03:05 85° E 23:09:22 10° N
Cosmos 1844 Rocket 3.2 23:01:41 34° SSE 23:03:24 44° ESE 23:08:40 10° NE
Cosmos 1818 4.1 22:58:38 10° NW 23:03:43 40° WSW 23:04:38 37° SW
CZ-2D R/B 4.4 23:02:25 10° ENE 23:04:27 12° E 23:06:28 10° ESE
CRYOSAT 2 4.4 23:04:27 10° N 23:09:21 71° E 23:10:56 42° SSE
Meteor 1-11 4.3 23:09:36 38° SSW 23:11:56 76° WNW 23:17:45 10° N
Cosmos 1937 Rocket 4.0 23:09:52 31° SW 23:12:06 54° WNW 23:17:14 10° NNE
Cosmos 1975 Rocket 3.8 23:15:39 35° WSW 23:16:48 42° WNW 23:21:02 10° N
CENTAUR R/B 4.3 23:13:39 10° W 23:19:04 31° NNW 23:25:34 10° NNE
Resurs 1-4 Rocket 4.1 23:15:46 10° NE 23:19:18 18° E 23:22:29 11° SE
Cosmos 2366 rocket 3.9 23:20:25 35° SSW 23:23:15 84° W 23:29:29 10° N
Cosmos 1455 Rocket 4.4 23:22:18 10° NNW 23:25:58 26° W 23:26:44 24° WSW
Cosmos 2218 Rocket 3.9 23:24:46 35° SSW 23:27:34 81° W 23:33:46 10° N
Cosmos 1437 Rocket 3.0 23:29:05 46° SE 23:29:45 54° E 23:33:24 10° NNE
BlueWalker 3 2.8 23:26:36 10° NW 23:30:15 49° NNE 23:33:54 10° ESE
Cosmos 1869 3.7 23:28:42 10° NNW 23:32:13 42° W 23:32:26 42° WSW
Iridium 921 4.3 23:34:20 68° SSE 23:34:42 80° E 23:38:09 10° N
IDEFIX/ARIANE 42P 3.8 23:32:09 10° NNE 23:36:51 33° E 23:39:36 20° SE
MOZ.5/SAFIR/RUBIN 5/SL-8 4.3 23:35:41 23° SE 23:38:24 53° ENE 23:42:54 10° N
SL-16 R/B 4.2 23:43:14 10° WNW 23:45:14 12° W 23:46:02 12° WSW
Cosmos 2228 3.2 23:42:31 10° NNW 23:46:43 53° W 23:47:43 42° SW
Cosmos 1536 Rocket 3.5 23:45:24 43° SSW 23:46:46 76° W 23:51:11 10° N
Cosmos 1603 3.9 23:46:07 10° NW 23:51:42 54° WSW 23:54:09 32° S
Cosmos 1943 4.0 23:47:28 10° NW 23:52:27 33° WSW 23:53:53 29° SW
Helios 1A Rocket 2.6 23:52:13 49° S 23:53:08 74° WSW 23:56:56 10° NNW
Cosmos 1867 4.1 23:50:22 24° WSW 23:53:35 54° NW 23:58:59 10° NNE
